Aeroporto :
LOGIN :

Iscrizione | Disclaimer

   EN    FR    IT 

 










Sommario :    VFR   VFR Marginale   IFR   IFR Intensivo   IFR Molto Intensivo
Visibilità : 
Base nubi : 
>= 8 km
>= 3000ft
5 / 8 km
1000 / 3000 ft
1500m / 5 km
500 / 1000 ft
800 / 1500m
200 / 500 ft
< 800m
< 200 ft
Simboli :   Temporali  Nebbia  Neve Forte  Precipitazioni Forti  Vento > 20 kt
SIGMETs :   Varie  Temporali  Ghiacco  Turbolenza  Onda orograficha  Ceneri Vulcaniche






- Altitudine del aeroporto : 525 ft
- Codice IATA : VAF


LFLU - Valence

ULTIMO METAR :
  • 231530Z AUTO 18013KT CAVOK 25/14 Q1008

METARs OBSOLETI :
  • 231500Z AUTO 20013KT 9999 FEW042 26/14 Q1008
  • 231430Z AUTO 18012KT 150V210 CAVOK 26/15 Q1008
  • 231400Z AUTO 18011KT 150V230 CAVOK 26/14 Q1009
  • 231330Z AUTO 17010KT 140V230 CAVOK 25/15 Q1009
  • 231300Z AUTO 19010KT 150V230 CAVOK 26/15 Q1009

TAF N/A



MetMap, La meteo Aeronautica in un colpo d'occhio ! - Copyright ORBIFLY Dicembre 2007 - Disclaimer

ORBIFLY MET'MAP TEAM :

Programmazione e sviluppo : Alexandra Zaïnal
Concezione : Baudouin d'Aumeries
Aiuto per la programmazione : Marc-Olivier Méhu
Supporto tecnico e logistico : Manuel Goepfert
Aiuto per la traduzione : Arnaldo La Scala

Contatto : metmap@orbifly.com




FONTI E CREDITI :

   NOAA